Stations météo

Publicité
Carcassonne, France (7635): Température de l'air & dewpoint: 14.09.2019 05:00:00 - 20.09.2019 05:00:00 (CEST)Carcassonne, France (7635): Température de l'air 5cm: 14.09.2019 05:00:00 - 20.09.2019 05:00:00 (CEST)Carcassonne, France (7635): Température de l'air -20cm & Température de l'air -100cm: 14.09.2019 05:00:00 - 20.09.2019 05:00:00 (CEST)Carcassonne, France (7635): Vitesse du vent & gusts: 14.09.2019 05:00:00 - 20.09.2019 05:00:00 (CEST)Carcassonne, France (7635): Direction du vent: 14.09.2019 05:00:00 - 20.09.2019 05:00:00 (CEST)Carcassonne, France (7635): reduced air pressure: 14.09.2019 05:00:00 - 20.09.2019 05:00:00 (CEST)Carcassonne, France (7635): visibility: 14.09.2019 05:00:00 - 20.09.2019 05:00:00 (CEST)Carcassonne, France (7635): Ensoleillement: 14.09.2019 05:00:00 - 20.09.2019 05:00:00 (CEST)Carcassonne, France (7635): Quantités de précipitations: 14.09.2019 05:00:00 - 20.09.2019 05:00:00 (CEST)
Date & Time tt [°C] td [°C] tt 5cm [°C] tt -20cm [°C] tt -100cm [°C] ff [km/h] ff [knt] fx [km/h] fx [knt] dd ppp [hPa] vv [km] sd [min] rr [mm]
20.09.2019 05:00:00 15,9 12,8 14,7 22,8 21,9 10 5 14 7 E 1019,4 46 0 0,0
20.09.2019 04:00:00 16,8 14,1 16,0 23,0 21,9 6 4 16 9 E 1019,4 40 0 0,0
20.09.2019 03:00:00 18,1 16,6 17,2 23,3 21,9 8 5 28 15 E 1019,5 20 0 0,0
20.09.2019 02:00:00 18,8 16,8 18,1 23,5 21,9 19 10 33 18 E 1019,4 25 0 0,0
20.09.2019 01:00:00 19,1 16,9 17,9 23,7 21,9 15 8 24 13 E 1019,2 26 0 0,0
20.09.2019 00:00:00 18,3 16,6 16,3 24,0 21,9 8 5 18 10 E 1018,9 27 0 0,0
19.09.2019 23:00:00 18,8 16,8 15,9 24,2 21,9 6 3 12 7 S 1018,5 27 0 0,0
19.09.2019 22:00:00 19,1 16,5 16,2 24,4 21,9 4 2 9 5 S 1018,2 32 0 0,0
19.09.2019 21:00:00 20,8 17,0 17,1 24,6 21,9 4 2 16 9 NW 1017,5 27 0 0,0
19.09.2019 20:00:00 23,3 16,6 22,1 24,7 21,9 9 5 22 12 W 1016,7 37 33 0,0
19.09.2019 19:00:00 25,5 16,6 25,6 24,7 21,9 11 6 26 14 W 1016,3 44 60 0,0
19.09.2019 18:00:00 26,3 16,8 28,3 24,5 21,9 12 6 28 15 W 1016,1 33 60 0,0
19.09.2019 17:00:00 26,4 17,2 28,7 24,2 21,8 15 8 31 17 W 1016,1 49 60 0,0
19.09.2019 16:00:00 25,6 17,5 28,5 23,9 21,8 16 9 29 16 W 1016,5 19 60 0,0
19.09.2019 15:00:00 24,5 17,7 28,0 23,4 21,8 17 9 34 18 W 1017,3 50 60 0,0
19.09.2019 14:00:00 23,7 17,9 27,1 23,0 21,8 16 8 32 18 W 1018,0 33 60 0,0
19.09.2019 13:00:00 22,2 16,7 25,5 22,7 21,8 21 12 34 19 W 1018,6 33 57 0,0
19.09.2019 12:00:00 21,0 16,2 22,4 22,5 21,9 18 10 33 18 W 1019,0 34 53 0,0
19.09.2019 11:00:00 20,0 16,4 22,0 22,5 21,8 15 8 26 14 W 1019,0 20 44 0,0
19.09.2019 10:00:00 18,4 17,7 18,8 22,6 21,8 5 3 14 8 W 1019,0 12 3 0,0
19.09.2019 09:00:00 17,8 17,2 17,3 22,7 21,8 6 3 11 6 WNW 1018,5 20 0 0,0
19.09.2019 08:00:00 17,4 16,9 16,8 22,9 21,8 4 2 9 5 S 1018,0 8 0 0,0
19.09.2019 07:00:00 17,3 16,8 17,0 23,1 21,8 4 2 10 5 S 1017,4 17 0 0,0
19.09.2019 06:00:00 17,5 17,0 17,2 23,2 21,8 5 3 11 6 WNW 1017,1 16 0 0,0
19.09.2019 05:00:00 17,4 16,9 17,0 23,5 21,8 5 3 9 5 SSW 1016,9 5 0 0,2
19.09.2019 04:00:00 17,4 16,9 17,0 23,7 21,8 4 2 10 5 W 1017,2 9 0 0,0
19.09.2019 03:00:00 17,5 17,0 17,1 24,0 21,8 4 2 6 4 W 1017,8 13 0 1,2
19.09.2019 02:00:00 17,5 16,9 17,2 24,3 21,8 3 1 13 7 W 1018,7 2,9 0 3,4
19.09.2019 01:00:00 17,8 17,0 17,3 24,6 21,8 6 4 20 11 SW 1019,0 4,0 0 2,0
19.09.2019 00:00:00 17,7 16,9 17,1 24,9 21,7 8 4 39 21 S 1019,3 8 0 5,1
18.09.2019 23:00:00 17,7 16,7 17,2 25,1 21,7 27 14 52 28 NE 1018,9 0,7 0 -
18.09.2019 22:00:00 23,0 15,8 20,0 25,3 21,7 10 6 29 16 E 1016,9 48 0 0,0
18.09.2019 21:00:00 22,4 14,5 20,2 25,5 21,7 2 1 9 5 SSE 1016,1 56 0 0,0
18.09.2019 20:00:00 23,4 14,9 22,8 25,5 21,7 7 4 20 11 E 1015,2 57 0 0,0
18.09.2019 19:00:00 24,0 14,4 23,7 25,5 21,7 7 4 21 12 S 1014,5 57 0 0,0
18.09.2019 18:00:00 25,7 15,7 25,3 25,2 21,7 11 6 29 16 S 1014,7 34 0 0,0
18.09.2019 17:00:00 29,2 16,7 30,0 24,8 21,7 19 11 32 18 W 1013,9 48 23 0,0
18.09.2019 16:00:00 30,5 16,9 34,8 24,3 21,7 13 7 24 13 WNW 1014,4 33 60 0,0
18.09.2019 15:00:00 30,3 16,7 31,6 23,9 21,7 12 7 27 15 W 1014,4 30 42 0,0
18.09.2019 14:00:00 28,4 17,3 31,0 23,5 21,7 12 7 23 13 WNW 1014,9 19 34 0,0
18.09.2019 13:00:00 27,4 17,3 30,4 23,2 21,7 10 6 21 11 WSW 1015,3 31 18 0,0
18.09.2019 12:00:00 26,2 18,6 26,6 23,0 21,7 9 5 18 10 WSW 1015,7 41 11 0,0
18.09.2019 11:00:00 24,6 18,1 27,0 22,9 21,7 7 4 16 8 WNW 1015,9 33 36 0,0
18.09.2019 10:00:00 22,2 17,3 19,2 23,0 21,7 6 4 11 6 NNW 1015,7 37 46 0,0
18.09.2019 09:00:00 18,3 16,8 16,2 23,1 21,7 3 2 6 3 WSW 1015,6 20 0 0,0
18.09.2019 08:00:00 17,2 15,7 15,8 23,3 21,7 2 1 10 6 S 1015,1 17 0 0,0
18.09.2019 07:00:00 17,7 16,2 15,5 23,5 21,7 3 1 6 3 S 1014,7 20 0 0,0
18.09.2019 06:00:00 18,3 16,1 16,6 23,7 21,6 0 0 11 6 N 1014,5 24 0 0,0
18.09.2019 05:00:00 18,9 16,7 16,5 24,0 21,6 6 3 11 6 S 1014,6 27 0 0,0
18.09.2019 04:00:00 19,3 16,5 17,0 24,2 21,6 5 3 11 6 SW 1014,3 29 0 0,0
18.09.2019 03:00:00 19,5 16,7 16,8 24,4 21,6 7 4 14 8 SSE 1014,8 29 0 0,0
18.09.2019 02:00:00 19,7 16,5 16,9 24,6 21,6 6 3 11 6 S 1014,7 31 0 0,0
18.09.2019 01:00:00 20,9 16,7 17,9 24,8 21,6 3 1 8 4 S 1014,7 33 0 0,0
18.09.2019 00:00:00 20,6 16,2 17,8 25,1 21,6 4 2 10 5 S 1014,6 35 0 0,0
17.09.2019 23:00:00 22,0 16,3 18,7 25,3 21,6 4 2 11 6 S 1014,3 35 0 0,0
17.09.2019 22:00:00 23,3 16,1 18,9 25,5 21,6 3 2 10 5 S 1014,0 36 0 0,0
17.09.2019 21:00:00 26,0 15,1 21,2 25,6 21,6 5 3 13 7 W 1013,5 34 0 0,0
17.09.2019 20:00:00 27,1 14,8 22,5 25,6 21,6 4 2 9 5 W 1013,0 38 0 0,0
17.09.2019 19:00:00 30,8 14,8 29,5 25,4 21,6 5 3 13 7 W 1012,7 44 49 0,0
17.09.2019 18:00:00 32,2 13,4 34,0 25,1 21,6 10 5 18 10 W 1013,1 31 60 0,0
17.09.2019 17:00:00 33,3 13,4 36,9 24,6 21,6 6 3 16 8 W 1013,3 32 60 0,0
17.09.2019 16:00:00 32,8 13,9 37,1 24,0 21,6 6 3 16 8 N 1014,1 18 60 0,0
17.09.2019 15:00:00 32,1 13,8 34,3 23,4 21,6 10 6 20 11 WNW 1014,7 50 58 0,0
17.09.2019 14:00:00 30,9 15,3 34,7 22,8 21,6 11 6 28 15 W 1015,6 41 60 0,0
17.09.2019 13:00:00 29,4 15,5 32,7 22,4 21,6 13 7 27 15 W 1016,1 39 60 0,0
17.09.2019 12:00:00 27,7 17,2 29,3 22,1 21,6 14 8 29 16 W 1017,0 60 60 0,0
17.09.2019 11:00:00 25,7 16,8 26,8 21,9 21,6 19 10 32 17 W 1017,5 42 60 0,0
17.09.2019 10:00:00 23,8 16,8 23,6 22,0 21,6 12 7 24 13 W 1017,5 41 60 0,0
17.09.2019 09:00:00 19,8 17,6 15,6 22,1 21,6 4 2 14 7 S 1017,3 39 60 0,0
17.09.2019 08:00:00 16,8 15,7 14,1 22,3 21,6 6 3 12 7 SSW 1017,4 20 7 0,0
17.09.2019 07:00:00 16,5 15,5 13,9 22,5 21,6 6 3 12 6 SW 1017,3 18 0 0,0
17.09.2019 06:00:00 16,2 14,9 14,2 22,7 21,5 3 1 10 5 S 1017,3 18 0 0,0
17.09.2019 05:00:00 16,3 14,8 13,9 22,9 21,5 3 2 8 5 S 1017,3 19 0 0,0
17.09.2019 04:00:00 16,6 15,0 14,0 23,2 21,6 3 1 9 5 S 1017,7 19 0 0,0
17.09.2019 03:00:00 17,0 14,5 14,7 23,4 21,6 4 2 9 5 S 1018,0 26 0 0,0
17.09.2019 02:00:00 17,3 14,2 14,8 23,7 21,6 3 1 10 5 S 1018,4 29 0 0,0
17.09.2019 01:00:00 17,5 14,4 14,8 23,9 21,5 4 2 6 3 S 1018,6 34 0 0,0
17.09.2019 00:00:00 18,2 14,1 15,8 24,1 21,5 5 3 11 6 SW 1018,6 39 0 0,0
16.09.2019 23:00:00 19,5 14,1 16,3 24,3 21,5 0 0 16 8 N 1018,4 41 0 0,0
16.09.2019 22:00:00 21,2 14,1 17,2 24,6 21,6 3 2 13 7 E 1018,2 45 0 0,0
16.09.2019 21:00:00 23,8 13,9 21,5 24,6 21,5 6 4 16 8 E 1017,6 48 0 0,0
16.09.2019 20:00:00 25,9 14,0 24,2 24,7 21,6 8 5 25 14 E 1017,0 46 37 0,0
16.09.2019 19:00:00 28,9 13,6 29,1 24,5 21,5 18 10 29 16 E 1016,1 53 60 0,0
16.09.2019 18:00:00 30,9 14,5 33,1 24,2 21,6 19 10 30 16 E 1016,0 53 60 0,0
16.09.2019 17:00:00 31,5 14,6 34,9 23,8 21,6 18 10 31 17 ENE 1016,3 54 60 0,0
16.09.2019 16:00:00 31,2 15,2 35,1 23,2 21,6 16 9 31 17 ENE 1016,6 55 60 0,0
16.09.2019 15:00:00 30,3 15,6 35,6 22,6 21,5 12 7 26 14 ENE 1017,4 52 60 0,0
16.09.2019 14:00:00 29,5 15,2 34,3 22,0 21,5 10 6 23 12 ENE 1018,2 48 60 0,0
16.09.2019 13:00:00 27,7 14,3 32,5 21,5 21,6 10 6 21 11 E 1019,0 47 60 0,0
16.09.2019 12:00:00 25,7 14,5 30,1 21,2 21,6 6 3 15 8 E 1019,9 59 60 0,0
16.09.2019 11:00:00 23,2 14,7 26,6 21,0 21,5 4 2 9 5 E 1020,4 19 60 0,0
16.09.2019 10:00:00 19,9 14,5 20,1 21,0 21,5 2 1 9 5 WNW 1020,8 29 60 0,0
16.09.2019 09:00:00 16,3 14,3 14,6 21,2 21,6 2 1 8 5 SSW 1020,7 20 60 0,0
16.09.2019 08:00:00 14,7 13,4 13,2 21,4 21,6 4 2 11 6 S 1020,8 16 8 0,0
16.09.2019 07:00:00 14,6 13,3 12,0 21,6 21,5 6 4 11 6 S 1020,6 20 0 0,0
16.09.2019 06:00:00 14,3 12,8 12,1 21,8 21,5 2 1 6 3 SSE 1020,7 18 0 0,0
16.09.2019 05:00:00 14,9 12,9 12,9 22,0 21,5 2 1 12 7 SE 1020,9 20 0 0,0
16.09.2019 04:00:00 15,3 13,3 13,4 22,2 21,5 5 3 10 6 S 1021,0 27 0 0,0
16.09.2019 03:00:00 15,8 13,5 12,8 22,4 21,5 4 2 8 4 SSE 1021,2 32 0 0,0
16.09.2019 02:00:00 15,5 12,8 13,1 22,7 21,5 3 2 5 3 ESE 1021,3 41 0 0,0
16.09.2019 01:00:00 16,4 13,1 13,6 22,9 21,6 2 1 5 3 SW 1021,5 46 0 0,0
16.09.2019 00:00:00 18,4 12,8 15,2 23,1 21,6 3 2 12 6 N 1021,5 44 0 0,0
15.09.2019 23:00:00 18,8 13,0 16,9 23,3 21,6 9 5 17 9 ENE 1021,6 49 0 0,0
15.09.2019 22:00:00 21,3 12,7 19,6 23,5 21,5 6 4 32 17 ESE 1021,4 58 0 0,0
15.09.2019 21:00:00 22,5 12,1 21,7 23,6 21,5 19 11 37 20 E 1020,9 60 0 0,0
15.09.2019 20:00:00 23,4 12,4 22,7 23,6 21,6 24 13 43 23 E 1020,6 60 21 0,0
15.09.2019 19:00:00 25,6 11,7 25,9 23,5 21,5 26 14 49 26 E 1020,2 48 60 0,0
15.09.2019 18:00:00 27,3 10,9 28,8 23,4 21,6 29 16 47 25 E 1020,1 51 60 0,0
15.09.2019 17:00:00 28,2 11,3 28,6 23,1 21,5 30 16 45 24 E 1020,7 54 43 0,0
15.09.2019 16:00:00 27,9 11,4 28,8 22,7 21,5 29 16 50 27 E 1021,3 47 52 0,0
15.09.2019 15:00:00 27,7 12,1 28,7 22,3 21,5 31 17 51 28 E 1021,9 27 53 0,0
15.09.2019 14:00:00 27,6 13,2 27,9 21,9 21,5 32 17 53 29 E 1022,0 21 43 0,0
15.09.2019 13:00:00 26,8 14,5 27,5 21,5 21,5 29 16 49 26 E 1022,7 21 51 0,0
15.09.2019 12:00:00 25,7 16,0 27,6 21,3 21,5 26 14 43 23 E 1023,1 21 60 0,0
15.09.2019 11:00:00 24,0 15,8 22,2 21,3 21,6 26 14 39 21 E 1023,5 19 41 0,0
15.09.2019 10:00:00 21,9 15,7 21,1 21,3 21,6 25 13 37 20 E 1023,7 17 57 0,0
15.09.2019 09:00:00 19,5 15,8 18,7 21,4 21,5 16 8 25 13 E 1023,4 19 2 0,0
15.09.2019 08:00:00 19,5 15,6 18,7 21,5 21,6 13 7 32 18 E 1023,4 21 0 0,0
15.09.2019 07:00:00 19,5 15,4 18,5 21,6 21,5 23 12 36 19 E 1023,0 22 0 0,0
15.09.2019 06:00:00 19,2 14,9 18,2 21,8 21,6 14 7 29 16 E 1022,6 23 0 0,0
15.09.2019 05:00:00 19,6 13,8 18,5 22,0 21,6 17 9 34 19 ENE 1023,4 33 0 0,0
15.09.2019 04:00:00 20,0 14,1 19,3 22,2 21,5 18 10 43 23 E 1023,7 27 0 0,0
15.09.2019 03:00:00 20,0 14,8 19,4 22,3 21,5 23 12 40 22 E 1023,0 24 0 0,0
15.09.2019 02:00:00 20,4 14,5 18,9 22,5 21,6 21 11 31 17 E 1024,2 30 0 0,0
15.09.2019 01:00:00 20,2 14,1 19,2 22,7 21,6 18 10 28 15 E 1024,2 33 0 0,0
15.09.2019 00:00:00 20,6 14,0 19,7 22,9 21,6 16 9 31 17 E 1024,6 34 0 0,0
14.09.2019 23:00:00 21,3 14,2 20,0 23,1 21,6 16 9 27 15 E 1024,7 37 0 0,0
14.09.2019 22:00:00 22,4 14,0 21,5 23,2 21,6 18 10 30 16 E 1024,8 40 0 0,0
14.09.2019 21:00:00 23,5 13,4 22,8 23,3 21,6 18 10 28 15 E 1024,6 51 0 0,0
14.09.2019 20:00:00 24,8 11,4 23,7 23,3 21,6 15 8 40 22 E 1024,1 60 0 0,0
14.09.2019 19:00:00 26,8 10,9 26,4 23,2 21,6 29 16 46 25 E 1023,5 52 27 0,0
14.09.2019 18:00:00 28,9 11,5 30,4 23,0 21,6 26 14 44 24 E 1023,1 39 58 0,0
14.09.2019 17:00:00 29,4 12,3 32,0 22,6 21,6 29 16 45 24 ENE 1023,3 33 60 0,0
14.09.2019 16:00:00 29,1 12,9 32,4 22,2 21,6 29 16 44 24 E 1023,8 31 60 0,0
14.09.2019 15:00:00 29,0 13,2 32,3 21,7 21,6 31 17 48 26 E 1024,4 38 60 0,0
14.09.2019 14:00:00 29,0 14,0 31,6 21,2 21,6 30 16 48 26 E 1024,8 47 60 0,0
14.09.2019 13:00:00 27,5 13,4 27,8 20,8 21,6 26 14 36 19 E 1025,7 57 57 0,0
14.09.2019 12:00:00 25,7 13,2 28,5 20,6 21,6 18 10 27 14 ENE 1026,4 60 60 0,0
14.09.2019 11:00:00 22,8 13,6 20,5 20,5 21,6 9 5 15 8 ENE 1026,6 54 44 0,0
14.09.2019 10:00:00 18,4 14,3 16,6 20,5 21,6 3 1 14 8 W 1026,8 58 0 0,0
14.09.2019 09:00:00 16,8 13,9 - - - 8 4 15 8 S 1026,3 45 - 0,0
14.09.2019 08:00:00 17,5 14,0 16,0 20,7 21,6 7 4 16 9 ENE 1026,0 32 0 0,2
14.09.2019 07:00:00 18,5 12,0 16,9 20,8 21,6 6 3 16 9 ESE 1026,1 53 0 0,0
14.09.2019 06:00:00 18,3 11,8 14,9 21,0 21,6 6 4 18 10 E 1025,7 57 0 0,0
14.09.2019 05:00:00 16,4 12,4 15,0 21,2 21,6 2 1 9 5 SE 1026,0 60 0 0,0

tt = Température de l'air
td = dewpoint
tt 5cm = Température de l'air 5cm
tt -20cm = Température de l'air -20cm
tt -100cm = Température de l'air -100cm
ff = Vitesse du vent
fx = gusts
dd = Direction du vent
ppp = reduced air pressure
vv = visibility
sd = Ensoleillement
rr = Quantités de précipitations

stations d'obs. à proximité